[[[{"header":{"parameterUnit":"kt","parameterCategory":2,"dx":1,"dy":1,"la1":30.253999710083008,"la2":30.299108505249023,"lo1":-89.0895004272461,"lo2":-89.04439544677734,"nx":28,"ny":28,"refTime":"2022-09-25T21:00:00:Z","depth":0,"parameterNumber":1,"parameterNumberName":"U-component_of_WINDS"},"data":[1.1052,1.1098,1.1149,1.1226,1.1284,1.1347,1.1385,1.1441,1.1498,1.1581,1.1638,1.1693,1.1772,1.1853,1.1919,1.1943,1.1967,1.1951,1.1982,1.2011,1.2018,1.2025,1.2017,1.1955,1.1955,1.1945,1.1945,1.1944,1.1083,1.114,1.1194,1.1279,1.1328,1.1376,1.1449,1.1486,1.154,1.161,1.1667,1.1743,1.181,1.1894,1.1968,1.1994,1.2021,1.2011,1.201,1.2022,1.2055,1.2046,1.1989,1.1989,1.1989,1.1989,1.1989,1.1989,1.1151,1.1175,1.1255,1.1314,1.137,1.1427,1.146,1.1526,1.158,1.1658,1.1706,1.1769,1.1848,1.1957,1.2006,1.2059,1.2078,1.2082,1.2083,1.2083,1.2079,1.2095,1.2072,1.2073,1.2073,1.2073,1.2074,0,1.1216,1.1256,1.1308,1.1377,1.1421,1.1478,1.1539,1.1561,1.1659,1.1698,1.1761,1.1805,1.1893,1.1958,1.2035,1.2085,1.2137,1.2146,1.215,1.2128,1.2102,1.212,1.2175,1.2145,1.2146,1.2146,1.2147,1.2147,1.1291,1.131,1.1415,1.1446,1.1489,1.1537,1.1575,1.1659,1.1697,1.1784,1.1802,1.1867,1.1922,1.2013,1.2088,1.2154,1.2179,1.2164,1.2189,1.217,1.2183,1.2181,1.2186,1.2156,1.2155,1.2154,1.2153,0,1.1329,1.1406,1.1451,1.1551,1.1577,1.1595,1.1681,1.1708,1.1767,1.1813,1.1829,1.192,1.1979,1.2056,1.2137,1.2176,1.2215,1.2236,1.2191,1.22,1.2196,1.2196,1.2162,1.2165,1.2228,1.2227,1.2226,0,1.1423,1.1444,1.1558,1.158,1.1609,1.1691,1.1718,1.177,1.1835,1.1872,1.1942,1.1975,1.2067,1.2113,1.2169,1.2213,1.2227,1.226,1.2275,1.2254,1.225,1.2274,1.2277,1.2303,1.2303,1.2303,1.2303,0,1.1474,1.1557,1.1594,1.1625,1.173,1.1746,1.1791,1.1862,1.1897,1.1955,1.198,1.2041,1.2075,1.2123,1.2195,1.2209,1.2249,1.2284,1.2283,1.2281,1.2285,1.2284,1.2237,1.2303,1.2303,1.2303,1.2303,0,1.156,1.1615,1.1654,1.1745,1.1763,1.1785,1.1851,1.1888,1.1957,1.1994,1.204,1.2093,1.2134,1.2165,1.2224,1.2224,1.2255,1.2289,1.229,1.2297,1.2328,1.2293,1.2239,1.2238,1.2308,1.2308,1.2308,0,1.1601,1.1658,1.1727,1.1761,1.1798,1.1874,1.1902,1.1959,1.2009,1.205,1.2106,1.2149,1.2187,1.2211,1.2231,1.2289,1.229,1.2292,1.2353,1.2354,1.2334,1.2286,1.2258,1.2243,1.231,1.2309,1.2309,0,1.1641,1.1764,1.1764,1.1804,1.1889,1.1918,1.1948,1.2008,1.2032,1.2085,1.2115,1.2175,1.2208,1.2244,1.2292,1.2308,1.2292,1.2339,1.2342,1.2331,1.2314,1.229,1.2287,1.2322,1.2322,1.2322,1.231,0,1.1759,1.1794,1.1798,1.1875,1.1909,1.1931,1.2008,1.2034,1.2078,1.2128,1.217,1.2231,1.2289,1.2303,1.2343,1.2353,1.2363,1.2395,1.2428,1.2394,1.2393,1.2391,1.2425,1.2427,1.2428,1.2429,0,0,1.178,1.183,1.19,1.1929,1.1962,1.2036,1.2054,1.2094,1.2171,1.2193,1.2213,1.2304,1.2351,1.2393,1.2388,1.241,1.242,1.2425,1.2409,1.2406,1.2404,1.2401,1.2399,1.2431,1.2431,1.2432,1.2432,0,1.1838,1.1883,1.1898,1.1943,1.2011,1.2062,1.2066,1.2145,1.2177,1.2214,1.2273,1.2306,1.2372,1.2417,1.2448,1.2424,1.2466,1.2436,1.2399,1.2418,1.2414,1.241,1.2406,1.2403,1.2435,1.2435,1.2435,0,1.1892,1.195,1.1964,1.2037,1.208,1.2113,1.2168,1.2197,1.2223,1.2298,1.2333,1.2375,1.2438,1.2465,1.2479,1.2497,1.2504,1.2511,1.2506,1.2508,1.253,1.2525,1.252,1.258,1.258,1.2581,0,0,1.1931,1.1962,1.2046,1.2054,1.2078,1.2152,1.2175,1.2219,1.2273,1.2294,1.2348,1.2399,1.244,1.2464,1.2505,1.2523,1.2543,1.2526,1.2519,1.2513,1.2513,1.2533,1.2528,1.2581,1.2581,1.2581,0,0,1.1949,1.2048,1.208,1.2098,1.2148,1.2231,1.2233,1.2275,1.2319,1.2324,1.2397,1.2414,1.2439,1.2477,1.248,1.2518,1.2549,1.255,1.2492,1.2484,1.2477,1.2467,1.2541,0,0,0,0,0,1.2044,1.2037,1.2065,1.2079,1.2167,1.2215,1.2227,1.2288,1.2311,1.2313,1.2366,1.2406,1.2496,1.25,1.2512,1.2507,1.2592,1.259,1.2588,1.2518,1.2509,1.2502,0,0,0,0,0,0,1.205,1.2067,1.2066,1.2146,1.2167,1.2216,1.2269,1.2285,1.2313,1.232,1.2395,1.2409,1.2461,1.2498,1.2508,1.2502,1.2538,1.2591,1.259,1.2588,1.2515,1.2508,1.2502,0,0,0,0,0,1.2055,1.2069,1.2194,1.2147,1.2165,1.2244,1.2269,1.2284,1.2306,1.2385,1.2399,1.2349,1.2459,1.2472,1.2504,1.2496,1.2531,1.2535,1.259,1.2589,1.2588,1.2511,0,0,0,0,0,0,1.2059,1.2082,1.2199,1.2207,1.2153,1.2243,1.2259,1.2282,1.237,1.2384,1.2342,1.2347,1.2458,1.2468,1.2477,1.249,1.2526,1.2529,1.2532,1.2589,1.2588,1.2587,0,0,0,0,0,0,1.2076,1.2088,1.2203,1.2208,1.2217,1.2241,1.2255,1.2289,1.237,1.2322,1.2329,1.2343,1.2443,1.2465,1.2473,1.2523,1.2522,1.2525,1.2528,1.2529,1.2588,1.2588,0,0,0,0,0,0,1.2082,1.2093,1.2206,1.2213,1.2221,1.2313,1.2272,1.2359,1.2374,1.2317,1.2377,1.2378,1.2439,1.2448,1.2469,1.2516,1.2521,1.2522,1.2524,1.2526,1.2527,0,0,0,0,0,0,0,1.2087,1.1999,1.2153,1.2217,1.2224,1.2279,1.2281,1.2283,1.2374,1.2375,1.2376,1.2378,1.2501,1.2505,1.2509,1.251,0,0,1.2521,1.2523,0,0,0,0,0,0,0,0,1.1996,1.1998,1.2153,1.2155,1.2156,1.228,1.2281,1.2283,1.2374,1.2375,1.2376,1.2377,1.2503,1.2506,1.2509,0,0,0,0,0,0,0,0,0,0,0,0,0,0,0,1.2153,1.2155,0,1.228,1.2281,1.2283,1.2374,1.2375,1.2376,1.2377,1.2503,1.2506,1.2509,0,0,0,0,0,0,0,0,0,0,0,0,0,0,0,0,0,0,0,0,0,0,0,0,0,0,0,0,0,0,0,0,0,0,0,0,0,0,0,0,0,0,0,0,0,0,0,0,0,0,0,0,0,0,0,0,0,0,0,0,0,0,0,0,0,0,0,0,0]}],[{"header":{"parameterUnit":"kt","parameterCategory":2,"dx":1,"dy":1,"la1":30.253999710083008,"la2":30.299108505249023,"lo1":-89.0895004272461,"lo2":-89.04439544677734,"nx":28,"ny":28,"refTime":"2022-09-25T21:00:00:Z","depth":0,"parameterNumber":2,"parameterNumberName":"V-component_of_WINDS"},"data":[-13.1712,-13.1646,-13.153,-13.1396,-13.1268,-13.1151,-13.107,-13.0951,-13.0824,-13.0662,-13.0544,-13.0411,-13.0227,-13.0048,-12.9906,-12.9846,-12.979,-12.9851,-12.9768,-12.9619,-12.9589,-12.956,-12.957,-12.9843,-12.9844,-12.9938,-12.9939,-12.994,-13.16,-13.1477,-13.1376,-13.1196,-13.1104,-13.0975,-13.0817,-13.0745,-13.0641,-13.0485,-13.0366,-13.0209,-13.0066,-12.9856,-12.9693,-12.9645,-12.9568,-12.9608,-12.9605,-12.9575,-12.9413,-12.9425,-12.9672,-12.9672,-12.9672,-12.9672,-12.9672,-12.9672,-13.1364,-13.1331,-13.1157,-13.1043,-13.0921,-13.08,-13.0742,-13.0585,-13.0476,-13.0305,-13.0181,-13.0056,-12.9869,-12.9614,-12.9496,-12.9386,-12.9317,-12.932,-12.9318,-12.9319,-12.9336,-12.9199,-12.9354,-12.9352,-12.9351,-12.935,-12.9349,0,-13.1153,-13.1059,-13.0955,-13.0816,-13.0726,-13.0604,-13.0471,-13.0431,-13.0181,-13.0102,-12.9972,-12.9876,-12.9681,-12.9537,-12.9358,-12.9232,-12.9076,-12.9051,-12.9049,-12.9104,-12.9174,-12.9125,-12.8856,-12.9046,-12.9043,-12.904,-12.9039,-12.9037,-13.0898,-13.0876,-13.0638,-13.058,-13.0479,-13.0388,-13.0307,-13.009,-13.0012,-12.9809,-12.9784,-12.9643,-12.9518,-12.9322,-12.9125,-12.8975,-12.8896,-12.8981,-12.8872,-12.8925,-12.8883,-12.8884,-12.8874,-12.9004,-12.9008,-12.9012,-12.9015,0,-13.0762,-13.0574,-13.0502,-13.0266,-13.0205,-13.019,-12.9981,-12.9935,-12.9786,-12.9698,-12.9665,-12.9427,-12.9299,-12.9089,-12.89,-12.8792,-12.8737,-12.867,-12.8798,-12.8769,-12.8816,-12.8811,-12.9023,-12.9034,-12.8759,-12.8762,-12.8765,0,-13.0465,-13.0445,-13.0162,-13.0131,-13.0096,-12.9881,-12.985,-12.9719,-12.9562,-12.9492,-12.9291,-12.9227,-12.8969,-12.8871,-12.8712,-12.8632,-12.8599,-12.8507,-12.8463,-12.8521,-12.8531,-12.8466,-12.8449,-12.838,-12.8379,-12.8379,-12.8378,0,-13.0268,-13.0096,-13.0044,-12.9973,-12.9718,-12.9697,-12.9588,-12.9412,-12.9334,-12.9198,-12.9142,-12.8999,-12.8918,-12.8804,-12.8602,-12.8535,-12.8503,-12.8369,-12.8407,-12.8412,-12.8407,-12.8409,-12.8656,-12.8377,-12.8376,-12.8376,-12.8376,0,-12.9995,-12.9876,-12.9834,-12.9613,-12.9575,-12.9542,-12.9388,-12.9312,-12.914,-12.9041,-12.8931,-12.877,-12.8694,-12.8573,-12.8458,-12.8427,-12.8354,-12.8262,-12.8261,-12.8234,-12.8104,-12.826,-12.8527,-12.8541,-12.8216,-12.8214,-12.8213,0,-12.9815,-12.9724,-12.954,-12.9503,-12.9431,-12.9209,-12.9165,-12.9023,-12.8887,-12.8799,-12.8644,-12.8546,-12.8414,-12.8352,-12.8325,-12.8158,-12.8198,-12.8147,-12.8001,-12.7998,-12.8046,-12.8291,-12.838,-12.8494,-12.8194,-12.8196,-12.8197,0,-12.965,-12.935,-12.9357,-12.9263,-12.9049,-12.8988,-12.8941,-12.8799,-12.875,-12.8615,-12.856,-12.8422,-12.8311,-12.8216,-12.8069,-12.8051,-12.8164,-12.7935,-12.7926,-12.7974,-12.8171,-12.8253,-12.8274,-12.8067,-12.8069,-12.8071,-12.8182,0,-12.9264,-12.9198,-12.9213,-12.9024,-12.8947,-12.8917,-12.8704,-12.8648,-12.8517,-12.8375,-12.8297,-12.8126,-12.7976,-12.7949,-12.7821,-12.7852,-12.7811,-12.7698,-12.7559,-12.7727,-12.7756,-12.7769,-12.7532,-12.7526,-12.7522,-12.7518,0,0,-12.9132,-12.9034,-12.8835,-12.8786,-12.8707,-12.8479,-12.8464,-12.836,-12.8157,-12.8103,-12.8027,-12.7806,-12.7672,-12.7597,-12.7633,-12.7577,-12.7557,-12.7511,-12.7651,-12.7667,-12.7681,-12.7717,-12.7735,-12.751,-12.7509,-12.7507,-12.7506,0,-12.8947,-12.883,-12.8822,-12.8707,-12.8531,-12.8384,-12.8383,-12.8165,-12.8073,-12.8004,-12.7809,-12.7736,-12.7573,-12.7449,-12.7365,-12.7516,-12.7368,-12.7488,-12.7638,-12.7614,-12.7636,-12.7655,-12.7696,-12.7715,-12.7495,-12.7496,-12.7496,0,-12.8739,-12.8584,-12.8561,-12.8382,-12.8263,-12.8197,-12.8002,-12.7945,-12.789,-12.7638,-12.757,-12.7446,-12.7267,-12.7233,-12.7209,-12.7136,-12.7207,-12.7152,-12.7174,-12.7164,-12.713,-12.7157,-12.7181,-12.6866,-12.6865,-12.6863,0,0,-12.8606,-12.8547,-12.8312,-12.8326,-12.8265,-12.8048,-12.7993,-12.7857,-12.7708,-12.7649,-12.7487,-12.7342,-12.724,-12.718,-12.7075,-12.707,-12.7008,-12.7083,-12.7113,-12.7138,-12.7143,-12.7116,-12.7142,-12.6858,-12.6858,-12.6858,0,0,-12.854,-12.8271,-12.8167,-12.8159,-12.8027,-12.7791,-12.7804,-12.7669,-12.7556,-12.7535,-12.7297,-12.7249,-12.7212,-12.7099,-12.7059,-12.7019,-12.6889,-12.6894,-12.7095,-12.713,-12.7158,-12.7183,-12.6829,0,0,0,0,0,-12.8242,-12.8304,-12.8214,-12.8181,-12.7952,-12.7844,-12.7811,-12.7621,-12.753,-12.7544,-12.7386,-12.7236,-12.7026,-12.6985,-12.6952,-12.6997,-12.6796,-12.6807,-12.6817,-12.7074,-12.7113,-12.7145,0,0,0,0,0,0,-12.8228,-12.8189,-12.8211,-12.7983,-12.793,-12.7839,-12.7643,-12.7592,-12.7523,-12.7496,-12.7272,-12.7229,-12.706,-12.6988,-12.6962,-12.7008,-12.6838,-12.68,-12.6809,-12.6818,-12.7087,-12.7119,-12.7146,0,0,0,0,0,-12.8215,-12.8184,-12.787,-12.798,-12.7934,-12.7694,-12.7639,-12.7595,-12.7538,-12.7295,-12.7248,-12.74,-12.7067,-12.7031,-12.6971,-12.7025,-12.6855,-12.6846,-12.6806,-12.6814,-12.682,-12.7103,0,0,0,0,0,0,-12.8206,-12.814,-12.7856,-12.7834,-12.7944,-12.7695,-12.765,-12.7599,-12.7337,-12.7292,-12.7412,-12.7394,-12.7072,-12.7043,-12.7017,-12.7042,-12.6868,-12.6859,-12.6853,-12.6812,-12.6818,-12.6823,0,0,0,0,0,0,-12.8155,-12.8123,-12.7845,-12.781,-12.7782,-12.7697,-12.7657,-12.758,-12.7336,-12.7467,-12.7443,-12.7407,-12.7109,-12.7053,-12.7031,-12.6918,-12.6879,-12.687,-12.6864,-12.686,-12.6817,-12.6821,0,0,0,0,0,0,-12.8138,-12.811,-12.7814,-12.7794,-12.7769,-12.7511,-12.7624,-12.7399,-12.7315,-12.7482,-12.7301,-12.7295,-12.7123,-12.7097,-12.7042,-12.6939,-12.6923,-12.6879,-12.6873,-12.6868,-12.6866,0,0,0,0,0,0,0,-12.8124,-12.8356,-12.7985,-12.778,-12.7758,-12.7634,-12.7628,-12.7622,-12.7313,-12.7308,-12.7303,-12.7298,-12.693,-12.692,-12.691,-12.6957,0,0,-12.688,-12.6875,0,0,0,0,0,0,0,0,-12.8363,-12.8358,-12.7985,-12.798,-12.7976,-12.7633,-12.7629,-12.7624,-12.7313,-12.7308,-12.7304,-12.73,-12.6927,-12.6919,-12.6911,0,0,0,0,0,0,0,0,0,0,0,0,0,0,0,-12.7984,-12.798,0,-12.7633,-12.7629,-12.7625,-12.7312,-12.7308,-12.7305,-12.7301,-12.6925,-12.6918,-12.6912,0,0,0,0,0,0,0,0,0,0,0,0,0,0,0,0,0,0,0,0,0,0,0,0,0,0,0,0,0,0,0,0,0,0,0,0,0,0,0,0,0,0,0,0,0,0,0,0,0,0,0,0,0,0,0,0,0,0,0,0,0,0,0,0,0,0,0,0,0]}]]]